Location: Unspecified
(29.9680°N, 0.0000°E)
Time: 15:28:09
(UTC+00:00)

Explorer 7 - Pass Details

Date: 29 June 2019
Orbit: 485 x 680 km, 50.3° (Epoch: 17 July)

Event Time Altitude Azimuth Distance (km) Brightness Sun altitude
Rises 14:19:47 0° 294° (WNW) 2,979 11.0 58.9°
Reaches altitude 10° 14:22:47 10° 275° (W) 2,087 10.5 58.3°
Maximum altitude 14:25:57 18° 234° (SW) 1,651 10.0 57.6°
Drops below altitude 10° 14:29:10 10° 193° (SSW) 2,105 10.0 56.9°
Sets 14:32:13 0° 174° (S) 3,014 10.6 56.2°
